Date,TemperatureHighF,TemperatureAvgF,TemperatureLowF,DewpointHighF,DewpointAvgF,DewpointLowF,HumidityHigh,HumidityAvg,HumidityLow,PressureMaxIn,PressureMinIn,WindSpeedMaxMPH,WindSpeedAvgMPH,GustSpeedMaxMPH,PrecipitationSumIn
2013-1-1,15,0,-9,9,-4,-14,84,81,71,30.29,30.17,6,2,6,0.00
2013-1-2,14,-3,-15,8,-8,-20,82,79,74,30.31,30.27,3,1,5,0.00
2013-1-3,25,0,-11,22,-6,-17,89,78,54,30.29,29.53,6,1,6,0.01
2013-1-4,25,-2,-4,22,-6,-9,89,81,72,29.96,29.56,5,3,5,24.81
2013-1-5,20,3,-12,12,-2,-18,85,79,70,29.95,29.80,5,1,6,0.00
2013-1-6,31,16,3,21,11,-1,87,80,62,29.80,29.70,7,1,7,0.00
2013-1-7,30,18,-2,25,14,-6,90,86,81,29.76,29.69,7,2,9,0.00
2013-1-8,37,30,23,32,27,21,92,88,77,29.81,29.74,8,2,17,0.12
2013-1-9,42,36,33,32,31,30,91,81,66,29.79,29.33,14,4,15,0.21
2013-1-10,33,23,19,30,20,14,91,86,74,29.38,29.28,20,3,26,0.00
2013-1-11,21,14,-5,14,8,-10,85,77,64,29.66,29.37,15,6,18,0.00
2013-1-12,13,-6,-21,4,-12,-26,83,75,61,29.73,29.65,7,2,9,0.00
2013-1-13,16,-7,-19,5,-13,-25,81,74,61,29.84,29.72,6,2,8,0.00
2013-1-14,12,3,-17,9,-1,-22,89,80,73,29.93,29.82,7,2,7,0.00
2013-1-15,25,13,-3,15,8,-7,88,81,64,30.13,29.94,7,2,7,0.00
2013-1-16,21,1,-9,15,-4,-14,83,80,73,30.17,30.11,5,1,5,0.00
2013-1-17,28,1,-9,21,-4,-14,82,79,69,30.17,30.04,2,0,3,0.00
2013-1-18,19,0,-10,12,-5,-16,85,79,69,30.05,29.95,6,1,8,0.00
2013-1-19,24,-1,-11,15,-6,-16,84,79,64,30.07,29.99,5,2,5,0.00
2013-1-20,24,1,-12,14,-4,-17,85,79,64,30.06,29.99,6,2,7,0.00
2013-1-21,27,2,-8,19,-3,-13,83,79,65,30.01,29.89,5,1,7,0.00
2013-1-22,22,2,-12,14,-4,-17,85,78,68,29.93,29.82,7,1,8,0.00
2013-1-23,34,12,-4,31,7,-9,90,80,74,29.83,29.71,9,2,12,0.00
2013-1-24,48,36,32,35,32,30,95,86,61,29.85,29.75,8,2,12,0.48
2013-1-25,42,36,33,37,33,30,91,88,79,29.85,29.63,15,2,17,0.32
2013-1-26,40,34,28,35,31,25,92,87,79,29.65,29.47,16,3,20,0.14
2013-1-27,34,22,7,25,16,5,92,80,52,29.58,29.52,0,0,0,0.01
2013-1-28,31,19,6,22,14,2,90,84,65,29.58,29.49,0,0,0,0.00
2013-1-29,35,27,22,27,22,19,92,84,66,29.79,29.47,0,0,0,0.00
2013-1-30,43,30,25,32,26,21,92,86,63,29.88,29.76,8,1,9,0.08
2013-1-31,37,30,22,32,27,19,92,88,80,29.91,29.83,7,1,7,0.07
2013-2-1,45,29,8,35,24,5,91,81,51,30.01,29.83,6,2,9,0.02
2013-2-2,33,16,4,24,11,0,89,81,61,30.05,29.93,6,1,7,0.00
2013-2-3,31,17,6,25,14,3,90,86,77,29.93,29.80,8,1,8,0.00
2013-2-4,44,29,16,30,24,13,92,81,55,29.80,29.70,9,2,9,0.00
2013-2-5,50,33,22,30,25,20,94,75,40,29.69,29.52,12,3,14,0.00
2013-2-6,41,25,17,30,18,12,93,78,45,29.73,29.60,22,3,22,0.00
2013-2-7,35,24,13,24,18,8,89,75,57,29.69,29.52,9,2,9,0.00
2013-2-8,40,24,9,25,17,4,90,76,51,29.57,29.51,25,5,25,0.00
2013-2-9,36,26,15,22,17,9,85,69,44,29.62,29.53,26,8,26,0.00
2013-2-10,41,23,7,20,13,3,90,68,36,29.76,29.62,20,4,20,0.00
2013-2-11,34,18,10,22,10,3,89,72,50,29.94,29.69,9,3,9,24.87
2013-2-12,37,25,9,26,18,5,86,75,54,30.05,29.93,10,2,10,0.00
2013-2-13,46,31,23,31,25,21,90,78,54,30.04,29.96,14,2,14,0.00
2013-2-14,44,27,15,24,19,11,91,75,39,30.14,30.01,8,2,8,0.00
2013-2-15,44,26,15,29,19,9,88,76,54,30.37,30.11,8,2,8,0.00
2013-2-16,51,24,11,31,18,8,94,80,39,30.36,29.92,10,2,10,0.00
2013-2-17,41,25,6,31,19,3,94,80,53,30.07,29.95,11,0,11,0.08
2013-2-18,34,14,-3,21,7,-7,87,74,50,30.07,29.78,8,1,8,0.01
2013-2-19,36,22,11,29,18,7,92,85,74,29.78,29.68,10,1,10,0.06
2013-2-20,40,17,-6,25,8,-11,89,69,46,29.92,29.77,16,2,16,0.02
2013-2-21,34,13,-16,22,5,-22,91,73,37,30.02,29.91,11,2,11,0.01
2013-2-22,35,27,17,29,23,14,96,86,69,30.04,29.75,14,4,14,0.00
2013-2-23,36,24,13,29,18,9,96,79,47,30.12,29.70,22,5,22,0.00
2013-2-24,34,16,1,23,10,-3,90,77,48,30.24,30.11,9,2,9,0.00
2013-2-25,37,19,5,27,14,1,90,81,55,30.16,29.98,11,2,11,0.00
2013-2-26,33,15,-3,22,8,-8,90,76,50,30.25,30.07,9,2,9,0.00
2013-2-27,37,16,-4,23,8,-9,87,72,52,30.30,30.23,9,2,9,0.00
2013-2-28,40,28,11,32,24,6,95,86,70,30.40,30.24,10,1,10,0.01
2013-3-1,53,36,22,42,32,19,95,86,60,30.44,30.38,8,2,8,0.08
2013-3-2,53,33,19,35,27,17,94,80,48,30.40,30.01,9,2,9,0.00
2013-3-3,41,32,11,35,18,-1,92,59,26,30.07,29.94,33,6,33,0.07
2013-3-4,38,18,-1,17,5,-8,78,57,24,30.17,30.06,12,3,12,0.00
2013-3-5,43,22,2,23,12,-5,78,64,43,30.11,29.79,11,2,11,0.00
2013-3-6,40,31,26,34,27,18,91,84,71,29.93,29.69,23,2,23,0.13
2013-3-7,40,27,10,30,20,5,91,75,50,30.03,29.92,12,2,12,0.09
2013-3-8,45,23,-1,27,12,-5,85,66,38,30.00,29.86,20,4,20,0.00
2013-3-9,44,26,4,22,13,-2,82,61,38,30.32,29.99,28,5,28,0.00
2013-3-10,43,25,5,26,15,-1,84,66,45,30.35,30.23,9,3,9,0.00
2013-3-11,49,38,32,37,28,23,89,68,46,30.24,30.17,14,3,14,0.00
2013-3-12,49,37,24,34,28,19,84,71,54,30.22,30.16,10,2,10,0.00
2013-3-13,51,39,31,39,31,25,88,73,56,30.24,30.19,9,2,9,0.00
2013-3-14,52,36,23,35,27,19,91,70,44,30.24,30.11,17,2,17,0.00
2013-3-15,54,40,28,36,28,22,83,64,42,30.14,30.07,10,2,10,0.00
2013-3-16,49,34,16,34,24,13,89,70,41,30.09,29.81,24,4,24,0.00
2013-3-17,36,29,19,30,16,10,82,58,43,30.02,29.77,52,8,52,0.02
2013-3-18,40,27,14,24,15,7,81,62,40,30.11,30.00,18,5,18,0.01
2013-3-19,47,28,4,22,10,-2,81,52,14,30.19,29.97,12,3,12,0.00
2013-3-20,45,37,31,42,32,18,94,82,48,29.98,29.68,31,5,31,0.78
2013-3-21,36,28,19,28,21,14,87,76,55,30.02,29.84,17,1,17,0.01
2013-3-22,32,23,12,24,16,5,90,74,49,30.11,29.92,26,5,26,0.04
2013-3-23,23,8,0,17,3,-4,85,79,68,30.20,30.10,7,2,7,0.00
2013-3-24,40,25,1,18,11,-4,85,58,35,30.20,30.09,15,4,15,0.00
2013-3-25,47,27,8,24,14,2,83,60,33,30.13,29.97,10,2,10,0.00
2013-3-26,55,38,28,31,26,21,83,63,35,29.98,29.93,12,3,12,0.00
2013-3-27,51,34,20,35,27,16,88,74,52,30.02,29.97,10,2,10,0.00
2013-3-28,58,40,26,38,29,22,90,66,37,30.09,30.01,18,2,18,0.00
2013-3-29,54,41,30,45,32,25,91,72,53,30.20,30.09,14,3,14,0.04
2013-3-30,58,33,22,39,24,18,92,73,26,30.26,30.14,11,2,11,0.00
2013-3-31,64,39,18,34,22,13,88,56,18,30.15,29.94,11,2,11,0.00
2013-4-1,62,43,22,35,27,17,83,56,30,30.03,29.96,18,4,18,0.00
2013-4-2,66,45,25,40,31,21,89,61,31,30.10,30.02,14,3,14,0.00
2013-4-3,62,45,29,44,33,24,90,66,35,30.16,30.07,14,3,14,0.01
2013-4-4,59,43,32,41,35,27,86,73,44,30.09,29.88,25,2,25,0.00
2013-4-5,52,42,34,42,36,27,95,80,53,29.99,29.91,14,3,14,0.11
2013-4-6,46,40,35,42,37,22,93,87,77,29.99,29.89,15,3,15,0.38
2013-4-7,43,37,33,41,35,31,97,94,88,29.89,29.71,23,4,23,0.60
2013-4-8,43,35,26,34,26,23,95,72,51,30.00,29.74,32,8,32,0.01
2013-4-9,50,38,27,26,23,19,75,56,33,30.19,29.99,28,8,28,0.00
2013-4-10,54,39,27,38,29,19,83,68,42,30.20,29.98,14,3,14,0.01
2013-4-11,55,41,26,34,26,21,88,59,31,30.08,30.00,23,5,23,0.00
2013-4-12,54,39,21,31,22,16,86,55,25,30.04,29.75,15,4,15,0.00
2013-4-13,44,37,27,33,18,3,73,47,23,29.87,29.66,30,8,30,0.02
2013-4-14,42,30,21,26,19,12,85,64,39,29.88,29.77,22,4,22,0.00
2013-4-15,41,30,20,30,24,17,91,80,52,29.85,29.74,24,6,24,0.01
2013-4-16,44,32,23,25,18,12,84,58,30,30.10,29.83,37,10,37,0.00
2013-4-17,44,32,19,16,11,3,71,44,19,30.25,30.10,37,8,37,0.00
2013-4-18,50,34,17,26,17,8,72,52,33,30.29,30.21,23,4,23,0.00
2013-4-19,44,40,36,40,35,25,92,83,61,30.22,29.99,20,3,20,0.20
2013-4-20,53,42,32,44,34,24,96,77,44,30.14,30.04,20,4,20,0.11
2013-4-21,51,40,28,37,29,23,87,66,41,30.13,30.00,20,5,20,0.00
2013-4-22,46,36,28,30,21,14,82,56,29,30.28,30.04,35,10,35,0.00
2013-4-23,49,35,15,26,14,1,83,47,17,30.28,30.10,18,4,18,0.15
2013-4-24,59,39,17,28,17,9,81,46,14,30.26,30.09,15,4,15,0.00
2013-4-25,63,44,24,33,22,17,80,48,18,30.12,30.02,17,4,17,0.00
2013-4-26,70,48,26,37,29,19,81,53,20,30.25,30.12,20,4,20,0.00
2013-4-27,69,51,28,42,29,18,87,51,16,30.27,30.10,17,4,17,0.00
2013-4-28,60,51,42,42,31,20,73,48,22,30.12,30.02,23,6,23,0.00
2013-4-29,53,45,31,41,26,7,82,49,20,30.03,29.88,38,8,38,0.05
2013-4-30,42,30,19,24,16,10,79,56,32,30.23,29.92,33,7,33,0.00
2013-5-1,53,35,14,24,14,8,83,48,18,30.51,30.22,28,6,28,0.00
2013-5-2,66,43,17,30,19,10,80,45,12,30.53,30.30,20,4,20,0.00
2013-5-3,40,35,34,23,22,20,63,59,48,30.31,30.27,5,1,5,0.00
2013-5-4,65,52,39,32,29,26,68,45,23,30.14,30.02,28,12,28,0.00
2013-5-5,72,49,25,40,30,19,82,51,19,30.03,29.93,25,4,25,0.00
2013-5-6,77,53,27,43,31,18,87,51,12,29.99,29.86,22,4,22,0.00
2013-5-7,76,55,31,46,35,26,86,54,18,30.05,29.90,25,5,25,0.01
2013-5-8,77,58,36,50,38,22,90,55,14,30.14,30.02,28,4,28,0.00
2013-5-9,80,59,36,48,36,27,87,49,16,30.20,30.11,30,6,30,0.00
2013-5-10,80,60,33,47,32,18,86,44,10,30.29,30.20,23,5,23,0.00
2013-5-11,81,58,34,47,36,28,85,52,15,30.31,30.18,18,3,18,0.00
2013-5-12,83,62,38,50,40,32,87,50,16,30.23,30.06,18,3,18,0.00
2013-5-13,81,56,38,52,41,29,88,62,17,30.12,29.96,25,4,25,0.00
2013-5-14,71,54,34,46,34,23,91,53,20,30.12,30.03,18,4,18,0.00
2013-5-15,71,53,34,45,35,27,84,54,22,30.08,29.93,28,4,28,0.00
2013-5-16,62,51,42,45,40,36,89,67,46,29.97,29.88,23,4,23,0.01
2013-5-17,55,47,43,50,44,40,95,88,74,30.00,29.90,17,3,17,0.50
2013-5-18,60,49,40,49,40,34,100,75,42,30.11,29.98,15,4,15,0.15
2013-5-19,58,47,36,41,37,31,90,68,46,30.23,30.10,35,6,35,0.00
2013-5-20,72,52,28,43,36,24,91,58,28,30.24,30.05,15,3,15,0.00
2013-5-21,71,53,33,46,36,28,89,58,24,30.05,29.71,30,5,30,0.00
2013-5-22,48,41,27,38,27,11,88,62,25,29.98,29.75,20,4,20,0.00
2013-5-23,61,41,14,29,18,2,84,46,11,29.98,29.89,20,4,20,0.00
2013-5-24,58,44,28,34,29,21,80,58,36,30.01,29.97,16,4,16,0.00
2013-5-25,65,50,37,43,34,27,83,58,28,30.01,29.97,20,4,20,0.00
2013-5-26,61,46,35,46,38,27,89,74,51,30.01,29.94,18,3,18,0.05
2013-5-27,62,49,39,49,40,34,96,76,39,30.02,29.88,14,3,14,0.17
2013-5-28,54,47,41,49,43,36,97,86,63,29.91,29.82,20,3,20,0.33
2013-5-29,54,44,37,50,41,34,95,88,75,29.95,29.78,17,3,17,0.27
2013-5-30,58,46,34,48,39,29,100,76,48,30.12,29.94,28,6,28,0.01
2013-5-31,66,46,27,41,32,24,93,64,25,30.23,30.12,25,5,25,0.00
2013-6-1,72,54,29,42,35,24,86,52,24,30.26,30.04,10,2,10,0.00
2013-6-2,70,52,36,49,38,31,86,62,34,30.04,29.89,26,5,26,0.00
2013-6-3,69,51,29,43,34,25,90,57,23,30.09,30.02,23,4,23,0.00
2013-6-4,75,56,32,45,35,28,90,51,20,30.14,30.06,18,4,18,0.00
2013-6-5,80,59,35,48,39,31,88,53,21,30.16,30.08,17,3,17,0.00
2013-6-6,84,62,41,55,44,35,90,57,21,30.14,30.03,16,2,16,0.00
2013-6-7,83,65,42,54,43,33,89,51,18,30.09,29.99,16,4,16,0.00
2013-6-8,82,62,39,48,37,19,86,47,13,30.12,30.06,20,4,20,0.00
2013-6-9,83,64,40,53,40,22,86,50,12,30.10,29.91,14,4,14,0.00
2013-6-10,85,64,40,48,38,20,85,45,13,29.96,29.79,24,4,24,0.00
2013-6-11,76,62,46,50,40,32,79,48,22,30.00,29.83,15,3,15,0.00
2013-6-12,74,58,38,48,38,27,87,53,20,30.03,29.96,22,4,22,0.00
2013-6-13,63,52,43,48,37,28,92,60,29,30.11,30.00,30,5,30,0.04
2013-6-14,62,50,39,43,36,30,86,62,33,30.21,30.10,17,4,17,0.00
2013-6-15,77,54,25,45,32,20,89,51,17,30.15,30.03,17,3,17,0.00
2013-6-16,85,61,33,47,34,19,85,45,10,30.10,30.02,14,3,14,0.00
2013-6-17,84,63,38,51,37,23,81,45,13,30.11,29.94,12,3,12,0.00
2013-6-18,80,60,37,51,39,31,86,52,19,29.97,29.80,33,4,33,0.01
2013-6-19,54,47,41,52,42,36,94,83,66,30.02,29.78,38,4,38,0.43
2013-6-20,59,47,38,45,38,30,95,72,44,30.08,30.01,18,3,18,0.07
2013-6-21,60,47,31,44,36,26,89,66,40,30.11,30.06,12,4,17,0.00
2013-6-22,69,51,33,46,38,29,93,65,35,30.11,30.03,18,3,18,0.00
2013-6-23,77,56,33,51,42,30,92,64,29,30.04,29.77,15,2,15,0.00
2013-6-24,66,56,51,56,50,47,94,83,57,29.90,29.78,14,3,14,0.32
2013-6-25,58,54,49,57,52,48,100,95,89,30.03,29.89,11,2,11,0.27
2013-6-26,69,59,52,62,55,50,100,87,64,30.18,30.01,12,2,12,0.08
2013-6-27,87,73,51,62,54,47,90,54,29,30.27,30.17,12,3,12,0.00
2013-6-28,93,69,43,60,49,39,92,56,18,30.31,30.15,15,3,15,0.00
2013-6-29,96,74,56,66,56,47,87,58,22,30.20,30.03,16,3,17,0.00
2013-6-30,95,75,56,65,56,44,92,57,22,30.18,30.08,18,4,18,0.00
2013-7-1,100,76,55,66,56,48,88,56,20,30.18,30.08,11,2,11,0.00
2013-7-2,98,78,58,67,59,51,85,57,21,30.21,30.09,20,3,20,0.00
2013-7-3,94,75,60,65,57,45,88,58,23,30.18,30.05,18,3,18,0.00
2013-7-4,88,68,50,58,49,43,83,56,24,30.09,29.93,11,2,11,0.00
2013-7-5,83,65,45,58,44,28,86,53,18,29.99,29.89,11,3,11,0.04
2013-7-6,85,63,42,54,40,27,87,51,13,30.01,29.91,11,3,11,0.00
2013-7-7,89,66,41,54,44,35,81,51,20,30.01,29.92,12,2,12,0.00
2013-7-8,85,65,44,58,43,28,89,52,14,30.17,29.96,20,3,20,0.00
2013-7-9,90,67,41,55,41,27,80,46,12,30.24,30.13,10,2,10,0.00
2013-7-10,93,68,42,54,44,33,88,50,13,30.15,29.96,16,2,16,0.00
2013-7-11,80,62,51,60,48,42,85,63,30,30.04,29.98,26,3,26,0.04
2013-7-12,84,64,43,59,47,39,94,60,22,30.03,29.91,20,4,20,0.00
2013-7-13,82,62,42,49,39,27,85,49,15,30.16,30.00,20,3,20,0.00
2013-7-14,88,65,41,49,39,27,87,47,12,30.22,30.06,15,2,15,0.00
2013-7-15,59,47,40,46,39,35,87,73,50,30.11,30.08,10,1,15,0.00
2013-7-16,93,72,47,58,52,42,86,52,22,30.06,29.94,24,6,24,0.00
2013-7-17,90,72,55,62,48,22,89,51,10,30.20,30.04,11,2,11,0.00
2013-7-18,90,69,45,55,42,22,84,47,10,30.26,30.13,17,3,17,0.00
2013-7-19,96,70,43,54,41,25,87,45,10,30.20,30.06,23,2,23,0.00
2013-7-20,94,70,44,52,40,23,83,42,10,30.12,29.98,14,2,14,0.00
2013-7-21,92,68,42,49,37,20,81,42,10,30.05,29.97,16,2,16,0.00
2013-7-22,90,65,36,49,34,20,82,42,10,30.12,30.02,14,2,14,0.00
2013-7-23,94,67,36,50,37,22,82,42,10,30.19,30.07,15,2,15,0.00
2013-7-24,95,71,48,52,40,26,78,41,10,30.15,30.07,17,3,17,0.00
2013-7-25,93,70,44,50,42,31,84,44,12,30.18,30.12,11,2,11,0.00
2013-7-26,91,68,44,55,46,36,84,51,18,30.24,30.12,23,3,23,0.00
2013-7-27,88,68,52,56,40,17,82,46,10,30.14,29.98,14,2,14,0.00
2013-7-28,86,63,40,51,33,17,79,41,10,30.03,29.93,12,2,12,0.00
2013-7-29,81,61,37,45,34,20,75,42,10,30.07,29.97,14,3,14,0.00
2013-7-30,88,66,46,50,38,21,74,42,10,30.19,30.06,14,2,14,0.00
2013-7-31,85,64,41,53,43,34,81,49,22,30.20,30.03,10,2,10,0.00
2013-8-1,80,63,47,54,47,41,81,58,32,30.11,29.92,28,5,28,0.01
2013-8-2,74,56,37,53,42,34,94,64,31,30.14,30.03,20,3,20,0.01
2013-8-3,82,59,36,50,37,25,91,53,13,30.18,30.10,17,2,17,0.00
2013-8-4,87,62,36,49,38,28,87,49,12,30.18,30.07,16,3,16,0.01
2013-8-5,89,65,39,51,39,25,88,46,11,30.12,30.01,14,3,14,0.00
2013-8-6,89,67,42,52,40,21,86,45,10,30.14,30.04,17,3,17,0.00
2013-8-7,91,66,39,50,35,22,84,42,10,30.12,29.99,22,4,22,0.00
2013-8-8,92,67,49,48,39,28,74,42,10,30.07,29.97,30,4,30,0.00
2013-8-9,89,68,48,51,43,31,80,47,13,30.06,29.97,23,4,23,0.00
2013-8-10,86,64,41,51,40,23,88,48,12,30.08,30.02,12,2,12,0.00
2013-8-11,84,60,47,58,46,33,91,65,17,30.12,30.05,24,2,24,0.19
2013-8-12,88,63,42,59,44,31,100,61,13,30.12,30.03,14,2,14,0.00
2013-8-13,88,67,51,59,44,24,93,52,11,30.21,30.08,14,3,14,0.06
2013-8-14,91,66,42,55,40,26,87,47,11,30.15,30.04,12,2,12,0.00
2013-8-15,94,67,39,48,36,23,82,41,10,30.13,30.02,10,2,10,0.00
2013-8-16,90,66,41,51,38,23,80,44,10,30.14,30.05,12,3,12,0.00
2013-8-17,92,67,42,51,40,33,78,44,14,30.16,30.04,18,3,18,0.06
2013-8-18,89,68,46,54,43,32,81,47,14,30.19,30.09,17,3,17,0.00
2013-8-19,91,68,42,51,37,23,82,41,10,30.19,30.06,12,3,12,0.00
2013-8-20,90,67,41,49,37,24,78,41,10,30.15,30.03,15,3,15,0.00
2013-8-21,89,66,41,52,41,32,87,48,15,30.15,30.07,12,3,12,0.00
2013-8-22,87,70,49,54,47,41,80,48,24,30.15,29.98,30,3,30,0.00
2013-8-23,82,64,49,58,45,32,92,56,18,30.07,29.94,20,3,28,0.00
2013-8-24,85,63,39,53,41,33,86,50,17,30.01,29.90,28,3,28,0.00
2013-8-25,84,66,44,52,44,38,85,50,25,30.06,29.96,31,3,31,0.00
2013-8-26,81,63,46,52,41,32,82,50,19,30.13,30.03,15,3,15,0.00
2013-8-27,87,63,38,53,42,33,87,53,20,30.11,29.96,17,3,17,0.01
2013-8-28,83,66,54,62,51,43,96,65,26,30.09,29.98,15,3,15,0.06
2013-8-29,86,67,50,59,48,38,90,56,19,30.14,30.07,15,3,15,0.01
2013-8-30,84,62,39,52,40,31,92,53,16,30.22,30.12,17,3,17,0.00
2013-8-31,88,62,37,52,39,29,89,51,13,30.20,30.05,16,3,16,0.00
2013-9-1,90,62,38,52,41,28,89,53,13,30.11,29.98,16,2,16,0.00
2013-9-2,79,62,48,58,50,40,83,66,38,30.10,30.01,12,2,12,0.01
2013-9-3,79,64,55,63,55,49,95,76,45,30.17,30.09,11,2,11,0.04
2013-9-4,86,67,51,61,54,47,94,67,33,30.20,30.07,20,2,20,0.33
2013-9-5,74,60,53,65,57,52,100,91,60,30.18,29.99,23,3,23,0.26
2013-9-6,74,59,45,64,48,37,100,74,31,30.18,30.04,16,3,16,0.00
2013-9-7,78,56,36,50,41,33,93,63,25,30.19,30.07,14,3,14,0.63
2013-9-8,77,57,36,50,42,32,91,62,31,30.12,30.04,20,4,20,0.00
2013-9-9,76,58,38,51,43,34,91,61,32,30.14,30.05,24,4,24,0.00
2013-9-10,81,59,36,52,40,33,92,57,20,30.14,30.05,17,2,17,0.00
2013-9-11,86,62,37,54,39,31,89,52,14,30.19,30.06,16,2,16,0.00
2013-9-12,80,64,49,54,48,41,78,59,34,30.17,30.06,12,2,12,0.00
2013-9-13,68,60,55,65,57,53,100,92,73,30.11,29.95,28,2,28,0.39
2013-9-14,76,62,49,64,53,46,100,78,40,30.03,29.98,22,3,22,0.02
2013-9-15,81,64,52,57,51,46,88,66,32,30.03,29.91,15,3,15,0.02
2013-9-16,77,60,44,60,44,29,97,62,18,30.01,29.94,17,3,17,0.00
2013-9-17,68,52,37,51,42,33,88,71,42,29.95,29.76,22,3,22,0.00
2013-9-18,58,46,34,43,38,30,87,74,46,30.17,29.88,22,4,22,0.00
2013-9-19,66,44,26,48,32,24,100,70,26,30.21,30.07,16,2,16,0.00
2013-9-20,78,50,24,46,31,21,91,58,16,30.09,29.79,14,2,14,0.00
2013-9-21,68,54,39,41,36,30,76,52,31,29.85,29.76,11,3,11,0.00
2013-9-22,59,50,41,45,39,34,86,66,51,29.92,29.75,14,3,14,0.00
2013-9-23,61,51,40,48,40,37,94,68,43,30.07,29.91,17,3,17,0.06
2013-9-24,47,44,41,44,41,36,97,89,72,30.01,29.82,12,2,12,0.57
2013-9-25,44,41,37,42,38,34,100,90,75,29.82,29.73,24,7,24,0.04
2013-9-26,52,41,35,41,34,28,95,78,52,30.02,29.80,25,8,25,0.06
2013-9-27,52,41,26,38,31,24,92,71,45,30.10,30.01,12,3,12,0.09
2013-9-28,51,45,39,48,42,36,100,91,79,30.10,29.88,16,3,16,0.34
2013-9-29,52,44,38,46,41,37,100,91,64,29.91,29.78,28,5,28,1.26
2013-9-30,59,46,31,51,37,25,100,75,37,30.03,29.72,28,4,28,1.16
2013-10-1,58,41,29,42,32,26,92,73,42,30.12,29.99,14,3,14,0.00
2013-10-2,55,39,23,35,28,21,94,68,33,30.12,29.92,18,2,18,0.00
2013-10-3,51,39,34,33,30,24,91,71,41,30.26,29.93,40,11,40,0.08
2013-10-4,45,32,25,30,26,21,87,77,51,30.38,30.25,10,2,10,0.00
2013-10-5,66,42,20,34,27,17,89,60,25,30.43,30.34,12,2,12,0.00
2013-10-6,74,44,20,35,26,10,92,59,10,30.37,30.11,11,2,11,0.00
2013-10-7,67,45,25,40,27,22,89,57,19,30.12,29.95,15,2,15,0.00
2013-10-8,53,39,27,35,31,24,92,73,42,30.00,29.92,15,2,15,0.01
2013-10-9,59,39,23,40,30,21,95,74,37,29.96,29.85,17,3,17,0.00
2013-10-10,56,36,23,37,28,21,94,76,33,29.89,29.83,22,3,22,0.00
2013-10-16,60,36,21,34,26,18,91,69,29,30.22,30.10,8,1,8,0.00
2013-10-17,56,37,19,34,25,16,91,66,35,30.22,30.14,14,3,14,0.00
2013-10-18,61,37,18,32,24,15,91,66,27,30.28,30.21,7,1,7,0.00
2013-10-19,67,38,18,34,25,15,89,66,22,30.24,30.11,9,1,9,0.00
2013-10-20,62,41,19,33,27,16,90,63,29,30.18,30.12,16,3,16,0.00
2013-10-21,67,42,24,38,30,21,92,66,26,30.24,30.18,8,2,8,0.00
2013-10-22,70,47,22,40,33,20,95,63,28,30.25,30.15,9,1,9,0.00
2013-10-23,71,41,21,40,29,19,93,70,24,30.21,30.12,8,1,8,0.00
2013-10-24,71,42,21,39,28,18,92,66,20,30.19,30.12,8,1,8,0.00
2013-10-25,69,41,20,37,27,18,92,64,19,30.28,30.19,12,1,12,0.00
2013-10-26,66,39,19,37,26,16,92,65,21,30.33,30.17,15,2,15,0.00
2013-10-27,60,39,18,35,26,15,89,65,24,30.17,29.67,18,3,18,0.00
2013-10-28,49,40,31,34,30,25,85,68,46,29.78,29.63,28,6,28,0.00
2013-10-29,51,35,20,33,26,18,92,72,44,29.99,29.78,14,2,14,0.00
2013-10-30,44,34,24,33,28,21,91,80,57,30.11,29.98,10,1,10,0.00
2013-10-31,40,30,19,34,27,16,95,89,77,30.21,30.10,12,1,12,0.04
2013-11-1,50,36,30,39,33,27,100,90,63,30.29,30.13,9,1,9,0.01
2013-11-2,50,35,26,41,31,23,97,85,64,30.13,29.82,18,3,18,0.21
2013-11-3,37,29,25,26,22,19,86,74,53,29.98,29.88,12,2,12,0.00
2013-11-4,38,26,11,26,20,8,90,77,45,30.12,29.95,20,4,20,0.00
2013-11-5,31,22,7,30,19,4,95,88,79,30.21,30.11,10,2,10,0.00
2013-11-6,45,36,29,38,33,28,96,87,71,30.31,30.19,11,1,11,0.05
2013-11-7,45,40,32,42,38,30,100,94,77,30.28,29.90,38,5,38,0.52
2013-11-8,43,36,27,33,28,24,96,76,56,30.12,30.00,18,3,18,0.00
2013-11-9,50,36,27,35,29,24,94,76,42,30.18,30.11,10,1,10,0.00
2013-11-10,58,37,26,38,31,24,94,78,42,30.22,30.15,10,1,10,0.00
2013-11-11,56,36,23,38,29,21,94,79,47,30.33,30.20,7,1,7,0.00
2013-11-12,52,37,24,36,30,22,93,78,52,30.37,30.30,16,1,16,0.00
2013-11-13,55,40,26,44,34,23,97,81,47,30.34,30.25,14,2,14,0.02
2013-11-14,41,30,24,33,26,22,95,87,71,30.26,29.88,11,1,11,0.00
2013-11-15,41,30,17,29,23,15,94,78,52,29.89,29.57,12,3,12,0.00
2013-11-16,38,31,28,29,24,19,95,77,50,29.77,29.44,23,5,23,0.00
2013-11-17,43,32,23,28,24,20,91,74,52,30.07,29.76,14,4,14,0.07
2013-11-18,43,29,15,32,23,13,92,79,56,30.08,29.90,11,2,11,0.00
2013-11-19,42,37,34,38,35,32,100,94,75,29.91,29.81,18,4,18,0.52
2013-11-20,38,31,19,37,23,8,100,76,44,30.09,29.78,24,5,24,0.32
2013-11-21,42,23,12,14,9,4,82,59,23,30.44,30.09,16,3,16,0.00
2013-11-22,46,22,7,20,12,4,88,69,30,30.47,30.39,14,2,14,0.00
2013-11-23,48,23,10,25,16,6,89,75,35,30.40,30.21,7,1,7,0.00
2013-11-24,48,24,10,25,17,7,90,76,38,30.27,30.17,9,1,9,0.00
2013-11-25,57,28,16,30,20,13,89,74,33,30.35,30.24,7,1,7,0.00
2013-11-26,47,28,16,31,22,13,90,79,53,30.35,30.17,7,0,7,0.01
2013-11-27,51,28,18,33,23,16,92,81,45,30.19,30.05,6,0,6,0.00
2013-11-28,45,26,16,30,21,14,91,82,53,30.16,30.08,6,0,6,0.00
2013-11-29,50,27,13,31,21,11,91,80,45,30.24,30.16,7,1,7,0.00
2013-11-30,38,32,25,34,29,22,100,89,75,30.27,30.22,8,0,8,0.05
2013-12-1,43,38,34,42,36,34,100,94,83,30.24,29.90,20,5,20,0.90
2013-12-2,41,34,21,38,29,14,95,82,61,29.90,29.65,28,7,28,0.32
2013-12-3,27,17,9,18,12,5,89,82,60,29.90,29.78,0,0,0,0.00
2013-12-4,24,8,-3,5,-1,-7,83,69,32,30.04,29.89,0,0,0,0.00
2013-12-5,18,8,-2,6,0,-7,84,73,52,30.03,29.97,9,0,9,0.00
2013-12-6,17,10,3,8,3,-3,83,73,54,29.99,29.80,12,4,12,0.00
2013-12-7,19,13,12,10,8,3,86,77,59,29.83,29.73,20,3,20,0.00
2013-12-8,12,-4,-17,1,-10,-23,81,73,59,30.23,29.98,15,3,15,0.00
2013-12-9,17,10,-11,7,1,-16,82,69,59,30.35,30.23,8,2,8,0.00
2013-12-10,25,14,0,10,6,-4,82,70,49,30.31,30.19,12,2,12,0.00
2013-12-11,31,14,-2,18,8,-6,88,79,56,30.37,30.29,9,1,9,0.00
2013-12-12,34,12,0,21,7,-4,88,80,54,30.33,30.12,8,1,8,0.00
2013-12-13,37,26,16,26,21,13,90,84,63,30.36,30.13,8,1,8,0.01
2013-12-14,40,28,20,31,24,18,93,88,68,30.44,30.35,7,1,7,0.02
2013-12-15,43,23,12,32,20,9,93,86,54,30.41,30.29,8,1,8,0.01
2013-12-16,36,17,6,26,13,3,89,84,65,30.41,30.34,7,1,7,0.00
2013-12-17,40,17,5,26,12,2,88,82,55,30.39,30.10,12,1,12,0.00
2013-12-18,35,24,11,26,19,8,93,83,66,30.10,29.80,7,1,7,0.00
2013-12-19,31,21,3,26,13,-1,95,74,44,29.99,29.79,23,6,23,0.00
2013-12-20,20,10,-4,16,7,-9,90,84,75,29.99,29.73,17,2,17,0.00
2013-12-21,32,20,6,27,16,2,92,86,72,30.04,29.74,6,0,6,0.00
2013-12-22,36,29,23,31,26,21,94,89,80,30.27,30.04,10,1,10,0.01
2013-12-23,37,34,30,34,32,29,100,93,83,30.28,30.14,31,3,31,0.30
2013-12-24,34,16,1,30,13,-3,91,85,65,30.46,30.23,0,0,0,0.00
2013-12-25,21,7,-2,16,3,-6,88,84,74,30.48,30.38,0,0,0,0.00
2013-12-26,32,11,0,24,7,-4,89,84,68,30.41,30.35,0,0,0,0.00
2013-12-27,27,12,0,20,8,-4,90,84,73,30.36,30.15,0,0,0,0.00
2013-12-28,41,18,5,24,12,2,90,78,46,30.32,30.13,17,2,17,0.00
2013-12-29,24,11,-4,17,6,-9,87,81,71,30.32,30.22,8,1,8,0.00
2013-12-30,28,19,7,24,14,4,90,81,71,30.28,30.18,8,1,8,0.00
2013-12-31,36,29,24,30,26,23,94,90,75,30.27,30.12,11,1,11,0.01
2014-1-1,31,22,10,25,19,7,95,90,77,30.35,30.26,10,2,10,0.00
2014-1-2,34,21,11,24,17,8,91,85,68,30.32,30.06,9,1,9,0.00